Location: Bühlhof
(48.7849°N, 8.6361°E)
Time: 23:21:47
(UTC+00:00)

Daily predictions for brighter satellites

Satellite Brightness Start Highest point End
(mag) Time Altitude Azimuth Time Altitude Azimuth Time Altitude Azimuth
NOSS 3-1 (C) 4.5 16:25:39 10° NW 16:31:31 35° NNE 16:38:44 10° E
Thor Agena Rocket 3.5 16:28:40 10° SSE 16:33:39 69° ENE 16:38:39 10° N
SPOT 1/Viking Rocket 4.1 16:33:17 10° SE 16:37:53 35° ENE 16:42:30 10° N
IGS 5A 4.1 16:34:07 10° S 16:38:02 59° W 16:41:59 10° NNW
Cosmos 1452 Rocket 3.8 16:33:04 10° S 16:38:04 48° ESE 16:43:07 10° NNE
Cosmos 1980 Rocket 3.8 16:36:29 10° N 16:39:45 15° NE 16:43:00 10° ENE
NOSS 2-1 (E) 4.4 16:37:31 10° NNW 16:40:01 20° NE 16:42:55 10° E
NOSS 2-1 (C) 4.3 16:38:24 10° NNW 16:41:03 22° NE 16:44:08 10° E
Meteor 1-16 Rocket 4.1 16:35:48 10° N 16:41:05 60° ENE 16:46:27 10° SSE
Cosmos 1484 Rocket 3.5 16:40:18 10° S 16:43:32 49° W 16:46:48 10° NNW
Cosmos 1633 Rocket 3.7 16:40:32 10° NNW 16:44:47 59° W 16:49:01 10° S
Cosmos 332 Rocket 4.1 16:41:07 10° NNW 16:45:53 72° WSW 16:50:39 10° SSE
Cosmos 1821 Rocket 4.0 16:40:27 10° N 16:46:35 60° ENE 16:52:36 10° SSE
BREEZE M DEB (TANK) 4.2 16:45:56 10° W 16:47:46 24° SSW 16:50:27 10° SE
Cosmos 1869 Rocket 4.1 16:45:49 10° N 16:49:51 35° ENE 16:53:50 10° SE
Meteor 1-23 Rocket 4.2 16:44:18 10° S 16:49:55 73° E 16:55:31 10° NNE
SAR-Lupe-1 4.5 16:52:28 10° SE 16:55:49 39° ENE 16:59:10 10° N
DNEPR-1 R/B 3.5 16:51:28 10° SSW 16:55:52 79° SE 17:00:06 10° NE
Meteor 1-28 Rocket 3.5 16:53:25 10° N 16:56:39 57° WNW 16:59:52 10° SSW
SJ 16-02 4.5 16:54:45 10° WNW 16:57:20 16° W 16:59:55 10° SW
Landsat 7 3.9 16:53:55 10° SSE 16:58:34 82° WSW 17:03:16 10° NNW
CZ-2D R/B 4.1 16:58:08 10° SE 17:01:23 27° ENE 17:04:37 10° N
Cosmos 1697 Rocket 3.3 16:58:04 10° NNW 17:03:12 34° NE 17:08:18 10° ESE
Resurs 1-3 4.2 16:59:57 10° SE 17:03:49 33° ENE 17:07:42 10° N
CZ-2D R/B 2.6 17:01:04 10° SSE 17:04:11 79° ENE 17:07:19 10° N
Meteor 1-21 4.2 16:59:49 10° S 17:05:26 87° E 17:11:04 10° NNE
SMAP 3.7 17:02:16 10° S 17:06:51 60° W 17:11:29 10° NNW
NOSS 2-1 (D) 3.6 17:06:02 10° NNW 17:09:08 38° NE 17:13:00 10° ESE
BREEZE-M DEB (TANK) 3.2 17:04:03 10° W 17:09:27 81° N 17:12:22 15° E
Cosmos 1833 Rocket 3.6 17:06:23 10° SSE 17:11:10 29° ESE 17:15:11 13° NE
SAR-Lupe-4 3.5 17:08:40 10° SSE 17:12:12 64° ENE 17:15:47 10° N
Cosmos 2181 Rocket 4.0 17:06:03 10° S 17:12:13 86° E 17:18:32 10° N
IRS-1C 4.3 17:08:01 10° SSE 17:13:21 81° WSW 17:18:42 10° NNW
Cosmos 1603 4.0 17:08:31 10° SW 17:14:09 70° WNW 17:19:47 10° NNE
USA 267 3.7 17:09:54 13° ENE 17:15:21 46° N 17:21:31 10° WNW
BREEZE-M DEB (TANK) 3.8 17:17:15 10° W 17:20:03 45° SSW 17:29:07 10° SE
Cosmos 1934 Rocket 4.2 17:16:29 10° N 17:22:21 44° ENE 17:28:16 10° SE
ARIANE 5 R/B 3.0 17:18:04 10° S 17:23:15 66° WSW 17:28:27 10° NNW
YAOGAN 1 2.6 17:21:10 10° SSE 17:25:18 51° ENE 17:29:27 10° N
Okean 1-7 4.2 17:26:05 10° SE 17:28:42 21° E 17:28:42 21° E
Okean 2 3.3 17:25:58 10° SSW 17:29:48 78° W 17:33:41 10° N
ATLAS 5 CENTAUR R/B 3.2 17:28:22 10° WNW 17:30:16 15° NNW 17:32:17 10° NNE
SL-16 R/B 3.8 17:25:08 10° N 17:30:46 38° WNW 17:36:23 10° SW
SKYMED 2 3.5 17:26:51 10° NNE 17:31:11 63° ESE 17:35:29 10° S
Cosmos 1515 Rocket 4.5 17:27:23 10° SSW 17:31:41 50° WNW 17:36:01 10° N
Cosmos 1707 Rocket 4.4 17:28:45 10° SE 17:32:20 26° E 17:33:13 24° ENE
Cosmos 2239 Rocket 4.5 17:30:55 10° N 17:37:13 87° E 17:43:26 10° S
GRACE-FO 1 4.5 17:37:04 10° N 17:40:31 53° E 17:43:56 10° SSE
GRACE-FO 2 4.5 17:37:30 10° N 17:40:57 54° E 17:44:23 10° SSE
ISS -3.4 17:40:01 10° W 17:43:20 55° N 17:44:16 38° NE
COSMO-SKYMED 1 2.5 17:40:52 16° NNE 17:44:03 52° E 17:48:03 10° S
Okean 3 3.4 17:42:47 10° SSW 17:46:50 77° WNW 17:50:53 10° N
RESURS DK-1 3.0 17:43:16 10° SW 17:47:10 51° NW 17:50:11 16° NNE
USA 276 1.9 17:48:58 10° W 17:51:03 55° NW 17:51:03 55° NW
Nadezhda 3 Rocket 3.9 17:45:45 10° S 17:51:53 89° WNW 17:58:07 10° N
Cosmos 1302 Rocket 4.2 17:50:16 10° SSW 17:55:31 71° WNW 18:00:38 11° NNE
OceanSat 1 rocket 4.5 17:51:39 10° SSE 17:56:19 67° ENE 18:01:04 10° N
ATLAS 3B R/B 4.2 17:50:03 10° NW 17:56:34 27° N 18:00:15 19° NE
NOSS 3-4 (A) 4.1 17:51:44 10° WSW 17:56:51 42° NW 18:01:08 17° NNE
NOSS 3-4 (C) 4.1 17:51:52 10° WSW 17:57:01 43° NW 18:01:20 17° NNE
Cosmos 1733 Rocket 2.9 17:52:51 10° N 17:57:14 67° ENE 18:01:33 10° SSE
SJ-7 4.2 17:56:03 10° SSE 17:59:50 85° WSW 18:03:38 10° NNW
Radarsat Rocket 3.9 17:55:38 10° SSE 18:01:46 89° WSW 18:07:37 10° NNW
CZ-3 Stage 3 4.5 17:53:12 10° SW 18:02:16 20° SSW 18:06:41 10° SSE
Cosmos 2322 Rocket 4.2 18:00:38 10° N 18:02:06 11° NNE 18:02:06 11° NNE
SL-19 R/B 4.5 17:58:55 10° SSE 18:05:11 87° ENE 18:11:32 10° NNW
Meteor 2-19 Rocket 4.4 17:59:35 10° S 18:05:35 60° E 18:11:34 10° NNE
Resurs 01 Rocket 1.5 18:01:46 10° SSE 18:06:04 61° ENE 18:10:24 10° N
Cosmos 2333 Rocket 4.0 18:03:08 10° N 18:05:40 15° NNE 18:05:40 15° NNE
CARTOSAT-1 3.3 18:04:45 10° SSE 18:08:57 84° ENE 18:13:12 10° NNW
Cosmos 2228 Rocket 3.3 18:05:19 10° SSE 18:09:10 47° ESE 18:09:10 47° ESE
NOSS 3-1 (A) 4.1 18:03:53 10° NW 18:10:26 51° NE 18:13:44 33° E
SWAS 4.3 18:07:33 10° NNW 18:11:18 58° NE 18:11:18 58° NE
USA 59 Rocket 0.6 18:13:19 10° NW 18:16:43 50° SW 18:20:17 15° SSE
PSLV R/B 3.8 18:13:41 10° S 18:17:48 64° WSW 18:21:58 10° NNW
COSMOS 2455 2.7 18:11:54 10° NNW 18:17:58 78° NE 18:21:12 29° SE
Cosmos 1992 Rocket 4.0 18:14:31 10° SSW 18:19:42 77° WNW 18:22:50 25° NNE
USA 215 3.6 18:21:41 38° ESE 18:22:58 42° SE 18:29:06 10° SSW
NOSS 3-1 (C) 3.9 18:16:06 10° NW 18:23:06 90° NE 18:30:21 16° SE
NOAA 6 4.2 18:18:45 10° S 18:23:50 70° WSW 18:28:58 10° NNW
Cosmos 1980 Rocket 2.2 18:19:27 10° NNW 18:25:00 58° ENE 18:25:37 54° E
Cosmos 1486 Rocket 3.9 18:20:30 10° NNW 18:25:49 68° ENE 18:26:50 54° ESE
Cosmos 2369 4.4 18:20:43 10° NNW 18:25:06 35° NNE 18:25:06 35° NNE
NOSS 2-1 (E) 3.8 18:25:39 10° NW 18:29:03 54° SW 18:29:58 43° S
NOSS 2-1 (C) 4.2 18:26:39 10° NW 18:29:59 46° SW 18:31:37 30° S
IRAS Rocket 4.3 18:25:12 10° SSE 18:30:43 78° WSW 18:36:20 10° NNW
BlueWalker 3 4.4 18:32:49 10° SSW 18:33:07 12° S 18:33:07 12° S
USA 305 3.8 18:33:32 10° SW 18:35:59 36° SSW 18:35:59 36° SSW
Cosmos 1605 Rocket 3.9 18:32:53 10° N 18:39:19 90° ENE 18:45:39 10° S
Cosmos 2219 Rocket 4.4 18:41:14 10° N 18:41:41 11° N 18:41:41 11° N
Cosmos 1697 Rocket 3.5 18:41:54 10° NW 18:47:22 50° WSW 18:52:47 10° S
Cosmos 1833 Rocket 3.3 18:49:17 10° SW 18:54:47 53° NW 18:56:54 35° N
Cosmos 2082 Rocket 4.3 18:49:37 10° S 18:50:19 14° S 18:50:19 14° S
Cosmos 2360 Rocket 4.3 18:51:01 10° N 18:52:15 14° N 18:52:15 14° N
Cosmos 1777 Rocket 4.1 18:50:50 10° NNW 18:55:18 66° NNW 18:55:18 66° NNW
USA 267 3.1 18:57:15 69° ENE 18:57:57 76° NNE 19:04:30 10° NW
Meteor 1-24 Rocket 3.8 18:54:10 10° S 18:59:07 70° S 18:59:07 70° S
SL-16 R/B 3.9 18:55:00 10° NNW 18:57:12 20° N 18:57:12 20° N
Cosmos 909 Rocket 4.2 18:54:10 10° SW 19:01:42 79° NW 19:03:16 55° NNE
Okean 1-7 4.5 19:02:07 10° SW 19:05:05 33° WSW 19:05:05 33° WSW
ISS -0.3 19:17:04 10° WNW 19:17:13 11° WNW 19:17:13 11° WNW
BREEZE-M DEB (TANK) 4.4 19:17:27 10° W 19:19:37 45° W 19:19:37 45° W
Resurs 01 Rocket 4.4 19:40:08 10° SW 19:42:51 16° W 19:45:35 10° NW
ATLAS 3B R/B 3.9 19:42:03 10° NW 19:47:30 36° N 19:47:30 36° N
Cosmos 2333 Rocket 4.4 19:46:25 10° NNW 19:47:41 17° NNW 19:47:41 17° NNW
NOSS 3-1 (A) 4.5 19:54:32 10° NW 20:01:10 57° WSW 20:01:10 57° WSW
USA 215 4.3 20:09:03 38° WSW 20:09:03 38° WSW 20:12:49 10° WSW
Cosmos 1980 Rocket 4.2 20:04:02 10° NW 20:07:26 24° W 20:07:26 24° W
